OBJECT BB, 61784

Orbit data source: Space-Track

You're viewing an uncataloged RSO

Recently launched and/or uncataloged RSOs may have evolving metadata. Metadata may include the following, but is not limited to: Owner, Manufacturer, Bus, Motor, and Mission.

OBJECT BB, 61784 is a satellite in SSO that was launched on Mon, 04 Nov 2024 UTC via a SOYUZ-2-1B launch vehicle from the Vostochny Cosmodrome (VOSTO). Unknown objects in Earth's orbit typically refer to objects detected orbiting the Earth but have not yet been identified or cataloged. These objects could be anything from previously untracked satellites, spent rocket stages, debris from satellite collisions, or even natural meteoroids temporarily captured by Earth's gravity.

Loading next visibility...
Identifier
61784, 2024-199BB
Orbit
SSO
Country
Flag of TBDTBD
Related business
Manufacturer
SNIU
Mission
Operational Amateur Technology
Bus & Motor
CUBESAT 3U, Unknown motor
Mass
3 kg wet, 3 kg dry
Launch date (UTC)
2024-11-04 (2 years ago)
Launch vehicle
SOYUZ-2-1B
Launch site
Vostochny Cosmodrome (VOSTO)
Object type
Unknown
Shape & HBR
Box, 0.2 m
Radar Cross Section
0.035 m², Medium (>0.1 m² and < 1m²)

Expand to show TLE details & history
Last TLE update: 9 hours ago

TLE from 9 hours ago
0 OBJECT BB
1 61784U 24199BB  26264.27309157  .00058873  00000-0  54591-3 0  9993
2 61784  97.2747 142.9697 0003578 281.2321  78.8538 15.67296665152565
Epoch: 2026-09-21T06:33Z
TLE epoch observation values (Epoch: 2026-09-21T06:33:15.111Z)
Latitude
-0.00001°
Longitude
44.50145°
Altitude
369.334 km
Speed
7.688 km/s
True Right ascension
09h 31m 52s
True Declination
0° 00' 00"
Sunlit
Object was in daylight at epoch
Visualization orbit readout
Latitude
Unknown
Longitude
Unknown
Altitude
Unknown
Speed
Unknown
Apparent Right ascension
Unknown
Apparent Declination
Unknown
Sunlit
N/A
Visualization observer readout
Local Sidereal Time
08:06:39
Azimuth
Unknown
Elevation
Unknown
Doppler factor
Unknown
Orbital elements
Apogee altitude
365.951 km
Perigee altitude
361.127 km
Semi-major axis
6,741.676 km
Eccentricity
0.00036
Inclination
97.2747°
RAAN
142.9697°
Arg. of periapsis
281.2321°
True anomaly
78.89403°
Mean anomaly
78.8538°
Eccentric anomaly
78.87392°
Mean motion
3.92095 °/min
Orbital period
91.81 mins
BSTAR
0.00054591
Loading maneuver chart data...
Computing Atmospheric mass density...
Loading historical data...
Loading historical data...
Loading historical data...
Loading historical data...
Loading historical data...
Loading historical data...
Loading historical data...

Documentation

Showing up to 5 results
|